Время (UTC), дата Ветер
(°,м/с) 
Видим.   Явления Облачность Т
(°С)
Тd
(°С)
f(%) Тe
(°С)
Pmin
(гПа)
dP
(гПа)
Po
(мм)
O2
(г/м3)
Тmin Tmax R s Состояние
почвы
00 12.11.14 130 (ЮВ) 0600 м  туман  ?/?  
+3.6 +2.8 95 +2  1026.1  -0.5  728  289           
03 12.11.14 130 (ЮВ) 1500 м  дымка{туман}  3/3 200 м 
[St]
+3.8 +3.1 95 +1  1025.7  -0.3  728  289  +3.5         
06 12.11.14 130 (ЮВ) 20000 м  {туман}  3/0 верхняя 
[Ci fib]
+6.3 +4.4 88 +4  1025.5  0.3  728  286  +3         
09 12.11.14 130 (ЮВ) 20000 м    3/3 600 м 
[Sc]
+11.2 +4.7 64 +10  1023.8  -0.7  728  281           
12 12.11.14 120 (ЮВ) 20000 м    ясно 
+11.8 +4.2 60 +11  1023  -0.6  727  280           
15 12.11.14 110 (В) 20000 м    3/0 средняя 
[Ac trans]
+5.1 +3.2 87 +3  1024.8  0.4  727  287    +12.4       
18 12.11.14 170 (Ю) 20000 м    ясно 
+3.2 +1.9 91 +3  1024.4  -0.8  727  289           
21 12.11.14 110 (В) 20000 м    ясно 
+1.9 +0.8 92 1023.7  -0.8  726  290           
00 13.11.14 120 (ЮВ) 0300 м  туман  ?/?  
+1 +0.2 94 -1  1023.3  -0.5  726  291           
03 13.11.14 120 (ЮВ) 0200 м  туман  ясно 
-0.1 -0.7 96 -2  1023.4  0.1  726  293  -0.5         
06 13.11.14 120 (ЮВ) 0200 м  туман [диам. гололёда 1 мм]  ясно 
+2.4 +1.8 96 +1  1023  0.1  726  290  -0.8         
09 13.11.14 110 (В) 4000 м  дымка{туман}  3/3 300 м 
[St]
+6.8 +6.1 95 +5  1021.5  -0.5  725  284           
12 13.11.14 110 (В) 10 км  {туман}  ясно 
+9.8 +3.9 67 +9  1020.4  -0.6  725  281           
15 13.11.14 120 (ЮВ) 10 км    ясно 
+3.6 +2 89 +2  1021.8  0.2  725  288    +9.9       
18 13.11.14 170 (Ю) 4000 м  дымка  ясно 
+1.6 +0.4 92 -1  1021.8  -0.4  725  290           
21 13.11.14 160 (Ю) 4000 м  дымка  ясно 
+2.3 +1.1 92 1021.5  -0.2  725  289           
00 14.11.14 140 (ЮВ) 2000 м  дымка  ясно 
+2.1 +1.1 93 +1  1021.3  -0.2  725  289           
03 14.11.14 130 (ЮВ) 2500 м  дымка{туман}  ясно 
+1.1 +0.4 95 1021.3  -0.2  724  291  +1         
06 14.11.14 130 (ЮВ) 10 км  {туман}  ясно 
+3.6 +2.2 91 +2  1021.3  0.5  725  288  +0.6         
09 14.11.14 100 (В) 10 км    ясно 
+10.5 +4.7 67 +10  1019.8  0.1  725  280           
12 14.11.14 070 (В) 10 км    ясно 
+12.3 +3.7 56 +12  1018.7  -0.7  724  279           
15 14.11.14 120 (ЮВ) 10 км    ясно 
+5.2 +2.3 82 +4  1020.5  0.3  724  286    +12.6       
18 14.11.14 130 (ЮВ) 10 км    ясно 
+2.7 +1.3 91 +1  1021.3  0.3  725  289           
21 14.11.14 140 (ЮВ) 10 км    ясно 
+1.8 +0.1 88 1021.3  -0.2  724  290           
00 15.11.14 130 (ЮВ) 4000 м  дымка  ясно 
+1.1 +0.3 94 1021.3  0.1  724  291           
03 15.11.14 130 (ЮВ) 0300 м  туман  ясно 
+2.4 +1.7 95 1021  724  289  +0.5         
06 15.11.14 140 (ЮВ) 4000 м  дымка{туман}  3/0 средняя 
[Ac trans]
+4.5 +3.9 96 +2  1021  0.4  725  287           
09 15.11.14 130 (ЮВ) 7{11}  20000 м    3/0 средняя 
[Ac trans]
+10.2 +4.2 66 +8  1019.1  -0.7  724  281           
12 15.11.14 130 (ЮВ) 5{10}  20000 м    3/0 средняя 
[Ac trans]
+11.2 +3.8 60 +10  1018.4  -0.5  724  279           
15 15.11.14 120 (ЮВ) 20000 м    4/0 средняя 
[Ac trans]
+4.9 +3.1 88 +3  1020.1  0.4  724  286    +11.6       
18 15.11.14 130 (ЮВ) 20000 м    5/0 средняя 
[Ac trans]
+4.9 +3.5 91 +3  1020.1  724  286           
21 15.11.14 130 (ЮВ) 4000 м  дымка  4/0 средняя 
[Ac trans]
+4.9 +4.1 94 +2  1019.8  -0.3  724  286           
00 16.11.14 110 (В) 0200 м  туман  ?/?  
+5.5 +4.9 96 +3  1019.5  -0.2  724  285           
03 16.11.14 120 (ЮВ) 0800 м  туман  ?/?  
+5.4 +4.8 96 +3  1019.4  0.1  724  285  +4.3         
06 16.11.14 130 (ЮВ) 2000 м  дымка{туман}  10/10 120 м 
[St]
+5.1 +4.5 96 +3  1020.5  724  286           
09 16.11.14 130 (ЮВ) 20000 м    8/5 300 м средняя 
[St|Ac trans]
+8.9 +4.8 76 +7  1019.4  -0.3  724  282           
12 16.11.14 100 (В) 5{10}  20000 м    8/4 500 м средняя 
[Sc|Ac trans]
+7.5 +4.3 80 +6  1019.9  0.3  724  283           
15 16.11.14 090 (В) 0200 м  туман  ?/?  
+3.1 +2.3 94 1022.3  1.4  725  289    +10.4       
18 16.11.14 100 (В) 7{10}  0200 м  туман  ?/?  
+0.7 +0.1 96 -3  1023.7  0.8  726  292           
21 16.11.14 110 (В) 7{12}  0500 м  туман  ?/?  
-0.1 -0.7 96 -4  1023.9  726  293           
00 17.11.14 100 (В) 7{11}  0200 м  туман  ?/?  
-1.1 -1.6 96 -5  1024.7  0.6  726  294           
03 17.11.14 110 (В) 0200 м  туман  ?/?  
-1.8 -2.3 96 -7  1025.2  0.3  727  295  -1.8         
06 17.11.14 110 (В) 7{11}  0100 м  туман [диам. гололёда 3 мм]  ?/?  
-1.3 -1.9 96 -5  1026  0.8  727  295  -2         
09 17.11.14 110 (В) 8-10  10 км  {туман}  10/10 100 м 
[St]
-0 -0.6 96 -4  1025  -0.7  727  293           
12 17.11.14 120 (ЮВ) 7{12}  20000 м  {туман}  10/10 150 м 
[St]
+1.7 +0.9 94 -2  1024.5  -0.7  727  291           
15 17.11.14 120 (ЮВ) 10 км    10/10 120 м 
[St]
+0.6 -0.6 92 -4  1025.4  0.7  727  292    +1.8       
18 17.11.14 120 (ЮВ) 7{10}  4000 м  дымка  10/10 100 м 
[St]
+0 -0.7 95 -4  1025.8  0.2  727  293           
21 17.11.14 130 (ЮВ) 8-11{12}  10 км    10/10 100 м 
[St]
+0.7 -0.1 94 -3  1025.2  0.2  727  292           
00 18.11.14 130 (ЮВ) 7-11{13}  0200 м  туман  ?/?  
+0.4 -0.2 96 -3  1025.2  0.2  727  292           
03 18.11.14 130 (ЮВ) 1200 м  дымка{туман}  10/10 50 м 
[St]
+0.5 -0.1 96 -3  1025.7  0.5  727  292  -0.1         
06 18.11.14 130 (ЮВ) 8-11  4000 м  дымка{туман}  10/10 120 м 
[St]
+1.1 +0.5 96 -3  1026.5  0.9  728  292           
09 18.11.14 130 (ЮВ) 9-11{12}  10 км    10/8 210 м средняя 
[St|Ac und]
+3.7 +1.3 84 1025.7  -0.3  728  289           
12 18.11.14 130 (ЮВ) 8-11{12}  20000 м    10/8 270 м средняя 
[St|Ac und]
+3.6 +1.1 84 1025.8  -0.1  728  289           
15 18.11.14 130 (ЮВ) 20000 м  {ливн. осадки}  10/8 300 м кучево-дожд., средняя 
[Cb calv|Ac und]
+3.2 +1.7 90 1026.7  0.7  728  290    +4.4  0.0     
18 18.11.14 140 (ЮВ) 7-10  20000 м  {ливн. осадки}  10/6 480 м кучево-дожд., средняя 
[Cb cap|Ac und]
+3.4 +2.1 91 1026.7  0.1  729  290           
21 18.11.14 120 (ЮВ) 7-10{11}  2000 м  слаб. ливневой дождь  10/10 60 м кучево-дожд. 
[Cb cap|Ac und]
+2.6 +1.9 95 -1  1026.9  729  290           
00 19.11.14 120 (ЮВ) 6{10}  2500 м  ливневой дождь  10/8 100 м кучево-дожд., средняя 
[Cb cap|Ac und]
+2.4 +1.8 96 -1  1028.1  1.1  729  291           
03 19.11.14 130 (ЮВ) 20000 м  {ливн. осадки}  10/8 100 м средняя 
[Frnb|Ac und]
+2.2 +1.6 96 1028  -0.1  729  291  +2.1       
06 19.11.14 130 (ЮВ) 20000 м  {ливн. осадки}  10/8 240 м кучево-дожд., средняя 
[Cb calv|Ac und]
+2.6 +2 96 1028.9  0.9  730  291           
09 19.11.14 140 (ЮВ) 7{10}  20000 м    10/8 210 м кучево-дожд., средняя 
[Cb calv|Ac und]
+4 +2.6 91 +1  1028.6  730  289           
12 19.11.14 130 (ЮВ) 7{11}  20000 м    10/8 240 м средняя 
[Sc diur, vesp|Ac und]
+4.6 +2.7 87 +2  1028.6  -0.1  730  289           
15 19.11.14 130 (ЮВ) 20000 м    10/10 120 м 
[St]
+3 +2.1 94 -1  1029.6  0.7  731  291    +5.5       
18 19.11.14 130 (ЮВ) 9-12{12}  20000 м    10/10 180 м 
[St]
+2.8 +1.4 90 -1  1029  -0.6  730  291           
21 19.11.14 130 (ЮВ) 7{12}  20000 м    10/10 120 м 
[St]
+2.7 +1.8 94 -1  1028.5  -0.5  730  291           
00 20.11.14 130 (ЮВ) 7-10{10}  20000 м    10/10 120 м 
[St]
+2.4 +1.4 93 -1  1027.8  -0.7  729  291           
03 20.11.14 120 (ЮВ) 10  20000 м    10/10 200 м 
[St]
+2.4 +1.1 91 -2  1026.9  -0.8  729  291  +2.3         
06 20.11.14 120 (ЮВ) 7{14}  20000 м    8/8 300 м 
[St]
+2.3 +0.2 86 -1  1027.7  0.7  729  291  +1.9         
09 20.11.14 120 (ЮВ) 9-12{14}  20000 м    6/6 450 м 
[Sc]
+5.5 +0.6 71 +2  1026.2  -0.8  728  288           
12 20.11.14 100 (В) 10-13{14}  20000 м    8/8 360 м 
[St]
+3.4 +0.2 80 -1  1025.9  -0.7  728  290           
15 20.11.14 100 (В) 20000 м    10/10 500 м 
[Sc]
+2.7 -0.5 79 -1  1026.1  728  290    +6.2       
18 20.11.14 090 (В) 10-13{14}  20000 м    10/8 400 м средняя 
[St|Ac und]
+0.5 -2 83 -4  1025.9  -0.6  728  293           
21 20.11.14 090 (В) 9-12{13}  10 км    10/10 120 м 
[St]
-1.2 -2 94 -6  1026  -0.2  727  295           
00 21.11.14 090 (В) 9-11  4000 м  дымка  10/10 100 м 
[St]
-1.6 -2.3 95 -7  1025.1  -0.9  727  295           
03 21.11.14 080 (В) 0800 м  туман  ?/?  
-2.3 -2.9 96 -7  1024.5  -0.8  726  295  -2.4         
06 21.11.14 080 (В) 9-11{13}  0300 м  переохл. туман  ?/?  
-2.6 -3.2 96 -8  1025  0.5  726  296  -2.7         
09 21.11.14 090 (В) 8-10  1100 м  дымка{туман}  10/10 60 м 
[St]
-1.6 -2.2 96 -6  1024.3  -0.5  726  294           
12 21.11.14 090 (В) 8-10{11}  0200 м  туман [диам. сложн. отлож. 2 мм]  ?/?  
-1.3 -1.9 96 -6  1023.8  -0.4  726  294           
15 21.11.14 090 (В) 1400 м  дымка{туман}  10/10 50 м 
[St]
-1 -1.6 96 -5  1023.7  0.1  726  294    -1       
18 21.11.14 090 (В) 9-11  4000 м  дымка{туман}  10/10 150 м 
[St]
-1.4 -2 96 -6  1023.3  -0.4  725  294           
21 21.11.14 100 (В) 7{12}  20000 м  [диам. сложн. отлож. 3 мм]  10/10 300 м 
[St]
-1.9 -3.1 92 -6  1023.2  -0.2  725  295           
00 22.11.14 090 (В) 8-10{10}  20000 м    10/10 330 м 
[St]
-2.2 -3.9 88 -7  1022.1  -1.1  724  295           
03 22.11.14 090 (В) 20000 м    10/6 600 м средняя 
[Sc|Ac und]
-3.3 -7 76 -8  1021.3  -1  724  296  -3.3         
06 22.11.14 060 (СВ) 6{10}  20000 м    3/0 средняя 
[Ac trans]
-4.5 -7.7 78 -9  1021.6  0.1  724  297  -5.2         
09 22.11.14 060 (СВ) 20000 м    3/1 300 м средняя 
[St|Ac trans]
-3 -6.6 76 -7  1020.8  -0.5  723  295           
12 22.11.14 070 (В) 10 км    10/10 150 м 
[St]
-3.8 -5.1 91 -7  1021.2  0.2  724  296           
15 22.11.14 040 (СВ) 10 км  снежные зёрна  ясно 180 м 
-4.8 -5.7 93 -8  1022.6  1.1  724  298    -1.9  0.0     
18 22.11.14 040 (СВ) 2500 м  снежные зёрна{туман}  10/10 100 м 
[St]
-4.8 -5.6 94 -7  1022.7  0.1  725  298           
21 22.11.14 050 (СВ) 4000 м  слаб. снег  10/8 150 м средняя 
[Frnb|As op]
-5.7 -6.7 93 -7  1023.3  0.3  725  299           
00 23.11.14 050 (СВ) 4000 м  слаб. снег  10/6 180 м средняя 
[Frnb|As op]
-6.6 -7.6 92 -8  1023.4  0.1  725  300           
03 23.11.14 070 (В) 10 км  в посл. час снег  10/10 100 м 
[Ns]
-7.2 -8.3 92 -9  1024  0.4  725  301  -7.2       
06 23.11.14 050 (СВ) 3000 м  дымка{снег}  10/10 120 м 
[Ns]
-6.5 -7.5 93 -6  1025  1.1  726  300  -7.2         
09 23.11.14 030 (СВ) 4000 м  дымка  10/10 180 м 
[Ns]
-5.2 -6.1 93 -7  1025.8  727  299           
12 23.11.14 020 (С) 10 км    10/6 500 м средняя 
[Sc|Ac und]
-4.9 -6.2 91 -6  1026.4  0.7  727  299           
15 23.11.14 тихо ()   10 км  слаб. снег  10/4 300 м средняя 
[Sc|As op]
-4.8 -6.1 91 -5  1027.7  1.2  728  299    -4.4       
21 23.11.14 140 (ЮВ) 0200 м  переохл. туман  ?/?  
-7.2 -8.2 93 -7  1028.8  0.2  728  302           
00 24.11.14 210 (ЮЗ) 0200 м  переохл. туман  ?/?  
-8.3 -9.5 91 -8  1029.3  0.2  729  304           
03 24.11.14 140 (ЮВ) 20000 м  {туман}  ясно 
-6.9 -7.9 92 -7  1029.8  0.8  729  302  -10.1    0.0  равномерный
сухой снег
100% 
06 24.11.14 080 (В) 10 км  {туман}  8/3 200 м средняя 
[St|Ac trans]
-7.7 -8.9 91 -11  1031.7  1.6  730  304           
09 24.11.14 060 (СВ) 0700 м  туман  ?/?  
-6.2 -7.2 92 -11  1032.5  1.1  731  302           
12 24.11.14 090 (В) 0800 м  снежные зёрна{туман}  ?/?  
-6.4 -7.5 92 -10  1032.7  0.1  731  302           
15 24.11.14 100 (В) 2000 м  дымка{снег, туман}  10/10 50 м 
[St]
-7.3 -8.4 92 -13  1033.3  0.4  732  304    -5.3  0.0     
18 24.11.14 090 (В) 7{10}  1100 м  дымка{снег, туман}  10/10 60 м 
-8.1 -9.3 91 -14  1033.6  0.1  732  305           
21 24.11.14 100 (В) 2500 м  дымка  10/10 60 м 
[St]
-8.5 -9.7 91 -14  1033.6  0.1  732  305           
00 25.11.14 090 (В) 8-10{10}  0500 м  переохл. туман  ?/?  
-6 -6.9 93 -12  1032.3  -0.7  731  302           
03 25.11.14 090 (В) 0300 м  переохл. туман  ?/?  
-3.9 -4.8 93 -9  1030.9  -0.9  730  299  -8.9      сухой снег
50-90% 
06 25.11.14 090 (В) 9-12{12}  0900 м  переохл. туман  ?/?  
-3.3 -4.1 94 -9  1030.2  -0.5  730  298           
09 25.11.14 080 (В) 5{13}  2500 м  снежные зёрна{туман}  10/10 60 м 
[St]
-3.3 -4 95 -7  1029.9  -0.3  730  298           
12 25.11.14 090 (В) 7-10  2000 м  снежные зёрна{туман}  10/10 60 м 
[St]
-3.2 -3.9 95 -8  1029  -0.9  729  298           
15 25.11.14 090 (В) 6{10}  0600 м  снежные зёрна{туман}  ?/?  
-3.4 -4.1 95 -8  1028.8  -0.2  729  298    -3.2  0.4     
18 25.11.14 100 (В) 4000 м  дымка{снег}  10/10 100 м 
[St]
-3.2 -4 94 -7  1027.8  -0.9  728  297           
21 25.11.14 090 (В) 10 км  в посл. час морось{снег}  10/10 150 м 
[St]
-3.7 -4.4 95 -8  1027  -0.9  728  298           
00 26.11.14 100 (В) 10 км  в посл. час морось{снег}  10/10 120 м 
[St]
-3.9 -4.7 94 -8  1025.6  -1.3  727  298           
03 26.11.14 100 (В) 20000 м  {снег}  10/10 120 м 
[St]
-3.5 -4.3 94 -8  1024.6  -1.3  726  297  -4.1    0.0  равномерный
сухой снег
100% 
09 26.11.14 110 (В) 0900 м  туман [диам. сложн. отлож. 20 мм]  ясно 
-2.2 -2.9 95 -6  1023.2  -0.9  725  295           
12 26.11.14 110 (В) 10 км  {туман} [диам. сложн. отлож. 20 мм]  10/10 150 м 
[St]
-1.5 -2.1 96 -5  1022.6  -0.9  725  294           
18 26.11.14 100 (В) 0400 м  туман [диам. гололёда 2 мм]  ?/?  
-1.9 -2.5 96 -6  1022.4  -0.4  725  294           
21 26.11.14 100 (В) 0600 м  туман [диам. гололёда 3 мм]  ?/?  
-2 -2.7 95 -6  1022.1  -0.4  724  294           
00 27.11.14 100 (В) 4000 м  дымка{туман}  10/10 100 м 
[St]
-2.5 -3.2 95 -6  1022.1  0.1  724  295          замёрзшая 
03 27.11.14 100 (В) 4000 м  дымка [диам. гололёда 4 мм]  10/10 120 м 
[St]
-2.6 -3.3 95 -6  1022.1  0.1  724  295  -2.8      равномерный
сухой снег
100% 
06 27.11.14 120 (ЮВ) 0900 м  туман [диам. гололёда 4 мм]  ?/?  
-1.8 -2.5 95 -5  1023  725  294           
09 27.11.14 110 (В) 20000 м  {туман} [диам. гололёда 4 мм]  10/10 180 м 
[St]
-0.3 -0.9 96 -4  1022.5  725  292           
12 27.11.14 100 (В) 20000 м  {туман}  10/10 180 м 
[St]
+0.6 +0 96 -3  1022.6  0.3  725  291           
15 27.11.14 100 (В) 0200 м  туман  ?/?  
-0.1 -0.6 97 -4  1024.3  1.5  726  293    +0.6       
18 27.11.14 110 (В) 7-10{10}  0200 м  туман  ?/?  
+0.1 -0.5 96 -4  1024.9  0.6  727  293           
21 27.11.14 100 (В) 5{10}  0200 м  туман  ?/?  
-0.3 -0.8 96 -3  1025.6  0.6  727  293           
00 28.11.14 110 (В) 0200 м  туман  ?/?  
-0.6 -1.1 96 -2  1026.1  0.5  728  294           
03 28.11.14 160 (Ю) 0200 м  туман  ?/?  
-0.5 -1 96 -2  1027  0.8  728  294  -0.6         
06 28.11.14 140 (ЮВ) 0200 м  туман [диам. гололёда 1 мм]  ?/?  
-0.2 -0.7 96 -2  1028.4  1.4  729  294           
09 28.11.14 100 (В) 20000 м  {туман}  9/6 150 м средняя 
[St|Ac trans]
+1.8 +1.3 97 +3  1028  729  292           
12 28.11.14 060 (СВ) 0600 м  туман  ?/?  
+1.4 +0.6 94 1028.3  0.2  729  292           
15 28.11.14 090 (В) 0200 м  туман  ?/?  
+0.1 -0.5 96 -1  1029.6  730  294    +2.7       
18 28.11.14 170 (Ю) 0200 м  туман [диам. гололёда 0 мм]  ?/?  
-0.1 -0.7 96 +1  1029.9  0.2  730  294           
21 28.11.14 150 (ЮВ) 0200 м  туман [диам. гололёда 1 мм]  ?/?  
-0.8 -1.3 96 1030  0.1  730  295           
00 29.11.14 140 (ЮВ) 0200 м  туман [диам. гололёда 1 мм]  ?/?  
-1.1 -1.6 96 -2  1029.9  -0.2  730  296           
03 29.11.14 160 (Ю) 0100 м  туман  ?/?  
-1.6 -2 97 -3  1029.3  -0.6  730  296  -1.6         
06 29.11.14 130 (ЮВ) 0500 м  туман [диам. сложн. отлож. 6 мм]  3/3 200 м верхняя 
[St|Ci fib]
-1.3 -1.9 96 -2  1029.1  0.1  730  296  -3.4         
09 29.11.14 120 (ЮВ) 0900 м  туман [диам. сложн. отлож. 6 мм]  9/4 100 м средняя 
[St|Ac trans]
+2.7 +2.1 96 +2  1027.1  -1  729  290           
12 29.11.14 050 (СВ) 20000 м  {туман}  10/3 1000 м средняя 
[Sc|Ac und]
+3.4 +2 91 +3  1026.1  -0.8  728  289           
18 29.11.14 120 (ЮВ) 3000 м  дымка{туман}  10/10 120 м 
[St]
-0.1 -0.8 95 -3  1024.3  -1.6  726  293           
21 29.11.14 120 (ЮВ) 3000 м  дымка{ливн. осадки}  10/8 100 м кучево-дожд., средняя 
[Cb calv|Ac und]
+0.2 -0.5 95 -3  1021.6  -2.5  724  292           
00 30.11.14 150 (ЮВ) 2000 м  дымка{ливн. осадки}  10/8 60 м кучево-дожд., средняя 
[Cb calv|Ac und]
+0.2 -0.5 95 -3  1020.4  -1  724  291           
03 30.11.14 110 (В) 3000 м  дымка{ливн. осадки, туман}  10/8 50 м кучево-дожд., средняя 
[Cb cap|Ac und]
+0.4 -0.1 96 -3  1018.4  -1.8  722  291  -0.1    0.4     
06 30.11.14 130 (ЮВ) 6{12}  10 км  {ливн. осадки, туман}  10/8 120 м средняя 
[Frnb|Ac und]
+0.9 +0.2 95 -2  1017.3  -1  722  290           
09 30.11.14 130 (ЮВ) 4000 м  слаб. ливневой дождь  10/8 120 м кучево-дожд., средняя 
[Cb cap|Ac und]
+2.3 +1.6 95 1015.6  -1.3  721  288           
12 30.11.14 130 (ЮВ) 20000 м  {ливн. осадки}  10/8 150 м кучево-дожд., средняя 
[Cb calv|Ac und]
+3.1 +2 92 +1  1014.7  -0.8  720  286           
15 30.11.14 130 (ЮВ) 20000 м    10/8 100 м кучево-дожд., средняя 
[Cb calv|Ac und]
+1.5 +0.7 94 +1  1014.6  -0.3  720  288    +3.4     
18 30.11.14 320 (СЗ) 2500 м  слаб. ливневой снег  10/8 100 м кучево-дожд., средняя 
[Cb cap|Ac und]
+0.3 -0.3 96 1015.3  0.4  720  290           
00 01.12.14 280 (З) 10 км  в посл. час снег{ливн. осадки}  8/8 180 м 
[Sc diur, vesp]
-2.2 -3.2 93 -6  1017.2  0.9  721  293           
03 01.12.14 250 (З) 4{11}  10 км  слаб. снег  10/10 150 м 
[Sc]
-2 -3.1 92 -5  1017.2  721  293  -2.4    равномерный
мокрый или
старый снег
100% 
09 01.12.14 280 (З) 5{10}  2500 м  снег  10/10 100 м 
[Frnb|Ns]
-2.6 -3.4 94 -6  1018  0.2  721  294           
Время (UTC), дата Ветер
(°,м/с) 
Видим.   Явления Облачность Т
(°С)
Тd
(°С)
f(%) Тe
(°С)
Pmin
(гПа)
dP
(гПа)
Po
(мм)
O2
(г/м3)
Тmin Tmax R s Состояние
почвы